DECAYED

STARLINK-3952, 52534 (Decayed)

Orbit data source: Space-Track

STARLINK-3952, 52534 was a payload satellite owned by SpaceX/Seattle (US) in LEO that was launched on Fri, 13 May 2022 UTC via an FALCON 9 launch vehicle from the Air Force Western Test Range (AFWTR). Payload-class satellites include a variety of spacecraft equipped with specific instruments for various scientific and technological missions. These include communications satellites like Starlink; space stations such as the ISS; scientific satellites like the Hubble; Earth observation satellites from companies like Planet Labs, Umbra, and HawkEye 360; GPS; miniature CubeSats for education and research; and military/defense satellites.

Not visible in the next 10 days
Identifier
52534, 2022-051B
Orbit
Decayed
Country
Flag of USUS
Related business
Manufacturer
SpaceX/Seattle
Mission
Decayed Commercial Communications
Bus & Motor
STARLINK, Unknown motor
Mass
297 kg wet, ~275 kg dry
Launch date (UTC)
2022-05-13 (4 years ago)
Launch vehicle
FALCON 9
Launch site
Air Force Western Test Range (AFWTR)
Object type
Payload
Rocket body
Debris
Shape & HBR
Box + 1 Pan, 10.1 m
Radar Cross Section
13.562 m², Large (>1 m²)

Expand to show TLE details & history
Last TLE update: 2 months ago

TLE from 2 months ago
0 STARLINK-3952
1 52534U 22051B   26107.71711063  .30129544  13032-4  15877-2 0  9992
2 52534  53.2135 287.9592 0055034  24.7213 335.6452 16.33992667218436
Epoch: 2026-04-17T17:12Z
TLE epoch observation values (Epoch: 2026-04-17T17:12:38.358Z)
Latitude
-0.00002°
Longitude
-176.04694°
Altitude
149.923 km
Speed
7.837 km/s
True Right ascension
19h 11m 50s
True Declination
0° 00' 00"
Sunlit
Object was in daylight at epoch
Visualization orbit readout
Latitude
Unknown
Longitude
Unknown
Altitude
Unknown
Speed
Unknown
Apparent Right ascension
Unknown
Apparent Declination
Unknown
Sunlit
N/A
Visualization observer readout
Local Sidereal Time
21:31:45
Azimuth
Unknown
Elevation
Unknown
Doppler factor
Unknown
Orbital elements
Apogee altitude
218.194 km
Perigee altitude
145.987 km
Semi-major axis
6,560.227 km
Eccentricity
0.0055
Inclination
53.2135°
RAAN
287.9592°
Arg. of periapsis
24.7213°
True anomaly
335.38349°
Mean anomaly
335.6452°
Eccentric anomaly
335.51451°
Mean motion
4.08474 °/min
Orbital period
88.13 mins
BSTAR
0.0015877
Loading maneuver chart data...
Computing Atmospheric mass density...
Loading historical data...
Loading historical data...
Loading historical data...
Loading historical data...
Loading historical data...
Loading historical data...
Loading historical data...

Documentation

Showing up to 5 results
|